COSMOS 963

导读

COSMOS 963(宇宙963)是苏联(CIS)“宇宙”系列卫星,于1977年11月24日08:00发射升空。作为冷战时期苏联航天发展的产物,该系列卫星涵盖军用侦察、空间科学探测等多类任务。它是苏联持续推进太空技术探索的典型例证,丰富了“宇宙”系列卫星的在轨实践积累,为后续苏联航天技术迭代与卫星系统发展提供了重要技术支撑。

Basic Information
目录编号:
10491
目录名称:
COSMOS 963
国际标识:
1977-109A
轨道中心:
EARTH
卫星名称:
COSMOS 963
卫星全名:
--
卫星状态:
在轨 (已飞行17824 天)
发射日期:
1977-11-24 UTC
国别 :
俄罗斯(独联体) (CIS)
星等 :
--
This satellite is enrolled in the Space Conjunction Data Service (SCDS) and the current flight risk assessment level is: No High Risk
Orbit Information
数据来源 国际轨道数据 AOE轨道数据
星历时间 2026-09-12T00:12:11+0800
12小时前
查看轨道信息
2026-09-10T06:00:00+0800
2天前
查看轨道信息
半长轴 7571.811km 7571.814km
偏心率 0.0014662 0.0014638
轨道倾角 82.931° 82.931°
近地点辐角 211.331° 215.838°
升交点赤经 211.418° 212.598°
平近点角 322.740° 261.303°
近地点 1182.572km 1182.593km
远地点 1204.776km 1204.761km
周期 109.285分钟 109.285分钟
每日圈数 13.176595 13.176586
Detailed Information
使用方式:
暂无
2D Orbit Map
3D Orbit Map
Orbit Altitude Analysis Chart
Orbit Inclination Analysis Chart
Orbit Comprehensive Analysis Chart
View Comprehensive Chart
Conjunction Data List
Event ID Objects TCA Miss Dist (km) Collision Risk Probability Collision Risk Index (CRI) Action
CDM_260906-043301-049105-657626
2026-09-06T
04:33:08+0000
1.670 km
极远距离
1.738448E-6 低风险 0.4
CDM_260914-011201-049105-514622
2026-09-14T
01:12:15+0000
2.350 km
极远距离
1.714389E-6 低风险 0.4
CDM_260906-124501-049105-412327
2026-09-06T
12:45:59+0000
2.485 km
极远距离
1.297451E-6 低风险 0.37
Miss Distance Evolution Trend with All Objects
Collision Probability Evolution Trend with All Objects